Winfield, KS

3:54 PM CST on January 17, 2017 (GMT -0600)
Strother

Weather History for KWLD - January, 2013

Change the Weather History Date:

Wednesday, January 9, 2013

  Actual Average Record
Temperature  
Mean Temperature 42 °F -  
Max Temperature 55 °F 41 °F 66 °F (2002)
Min Temperature 28 °F 22 °F 9 °F (1999)
Degree Days  
Heating Degree Days 24    
Moisture  
Dew Point 31 °F    
Average Humidity 65    
Maximum Humidity 92    
Minimum Humidity 40    
Precipitation  
Precipitation 0.01 in - - ()
Sea Level Pressure  
Sea Level Pressure 30.31 in    
Wind  
Wind Speed 6 mph (NE)    
Max Wind Speed 14 mph    
Max Gust Speed 21 mph    
Visibility 10 miles    
Events Rain    
Averages and records for this station are not official NWS values.
T = Trace of Precipitation, MM = Missing Value Source: NWS Daily Summary

Daily Weather History Graph

Daily Weather History Graph

Search for Another Location

Airport or City:

Trip Planner

Search our weather history database for the weather conditions in past years. The results will help you decide how hot, cold, wet, or windy it might be!

Date:

Astronomy

Jan. 09, 2013 Rise Set
Actual Time 7:42 AM CST 5:29 PM CST
Civil Twilight 7:13 AM CST 5:57 PM CST
Nautical Twilight 6:41 AM CST 6:29 PM CST
Astronomical Twilight 6:09 AM CST 7:01 PM CST
Moon 5:22 AM CST (1/9) 3:32 PM CST (1/9)
Length of Visible Light 10h 44m
Length of Day
9h 46m
Waning Crescent, 6% of the Moon is Illuminated
Jan 9
Waning Crescent
Jan 11
New
Jan 18
First Quarter
Jan 26
Full
Feb 3
Last Quarter

Hourly Weather History & Observations

Time (CST) Temp. Windchill Dew Point Humidity Pressure Visibility Wind Dir Wind Speed Gust Speed Precip Events Conditions
12:54 AM 30.0 °F - 28.0 °F 92% 30.24 in 10.0 mi Calm Calm - N/A   Clear
1:54 AM 33.1 °F - 30.9 °F 92% 30.25 in 8.0 mi Calm Calm - N/A   Clear
2:54 AM 28.9 °F 21.9 °F 27.0 °F 92% 30.25 in 9.0 mi North 6.9 mph - N/A   Clear
3:54 AM 34.0 °F 26.6 °F 32.0 °F 92% 30.26 in 9.0 mi NNE 9.2 mph - N/A   Clear
4:54 AM 33.1 °F - 30.0 °F 89% 30.26 in 10.0 mi Calm Calm - N/A   Clear
5:54 AM 28.9 °F 23.9 °F 26.1 °F 89% 30.29 in 9.0 mi NNE 4.6 mph - N/A   Clear
7:54 AM 28.0 °F 21.7 °F 25.0 °F 88% 30.39 in 10.0 mi North 5.8 mph - N/A   Clear
8:54 AM 32.0 °F 27.5 °F 28.9 °F 88% 30.40 in 9.0 mi North 4.6 mph - N/A   Clear
9:54 AM 37.9 °F 32.7 °F 30.9 °F 76% 30.41 in 10.0 mi NNE 6.9 mph - N/A   Clear
10:54 AM 45.0 °F - 34.0 °F 65% 30.40 in 10.0 mi Calm Calm - N/A   Clear
11:54 AM 51.1 °F - 34.0 °F 52% 30.38 in 10.0 mi NE 9.2 mph - N/A   Clear
12:54 PM 54.0 °F - 32.0 °F 43% 30.36 in 10.0 mi NE 12.7 mph - N/A   Clear
1:54 PM 55.0 °F - 30.9 °F 40% 30.34 in 10.0 mi ENE 13.8 mph - N/A   Clear
2:54 PM 55.0 °F - 30.9 °F 40% 30.32 in 10.0 mi ENE 11.5 mph - N/A   Clear
3:54 PM 54.0 °F - 30.0 °F 40% 30.33 in 10.0 mi ENE 9.2 mph - N/A   Clear
4:54 PM 53.1 °F - 30.9 °F 43% 30.32 in 10.0 mi NE 8.1 mph - N/A   Clear
5:54 PM 51.1 °F - 30.9 °F 46% 30.32 in 10.0 mi ENE 8.1 mph - N/A   Mostly Cloudy
6:54 PM 50.0 °F - 33.1 °F 52% 30.31 in 10.0 mi ENE 10.4 mph - N/A   Clear
7:54 PM 50.0 °F - 32.0 °F 50% 30.30 in 10.0 mi ENE 9.2 mph - N/A   Mostly Cloudy
8:54 PM 51.1 °F - 35.1 °F 54% 30.29 in 10.0 mi ENE 13.8 mph 19.6 mph 0.00 in Rain Light Rain
9:54 PM 51.1 °F - 33.1 °F 50% 30.26 in 10.0 mi East 13.8 mph 20.7 mph 0.00 in   Overcast
10:54 PM 50.0 °F - 33.1 °F 52% 30.23 in 10.0 mi East 11.5 mph 20.7 mph 0.00 in   Overcast
11:54 PM 48.0 °F - 36.0 °F 63% 30.21 in 10.0 mi East 11.5 mph - 0.01 in Rain Light Rain